Wind_Speed
17 18 19 21 22 23 26 29 30 31 32 34 36 38 39 40 41 42 42 43 44 44 43 43 42 42 41 41 41 40 40 39 39 40 41 42 43 44 44 44 44 45 45
20 21 22 23 24 25 27 30 31 32 34 35 36 37 38 39 41 43 44 44 45 45 45 45 43 41 41 41 41 41 41 41 41 41 42 43 43 43 43 43 44 45 44
23 24 26 27 28 29 31 32 33 34 36 37 38 39 39 40 41 42 42 42 43 43 43 43 41 41 42 42 42 42 42 42 43 43 43 43 43 42 42 43 44 44 43
27 29 30 32 33 34 35 36 36 37 38 39 39 40 41 41 42 42 42 42 42 43 43 43 43 43 44 44 44 43 43 43 44 44 43 43 43 43 43 43 43 43 42
31 33 34 36 37 38 39 40 41 42 42 43 44 44 44 45 45 45 45 46 45 45 45 45 45 45 45 45 45 45 45 45 45 44 44 43 43 43 43 43 42 42 41
33 35 37 38 40 41 42 43 45 45 46 46 47 47 47 48 48 48 48 49 48 48 48 48 48 47 47 46 46 46 46 46 46 45 44 44 44 43 43 42 41 40 39
37 39 41 42 44 45 47 48 48 49 49 50 50 50 50 50 51 51 51 51 50 50 50 49 49 49 48 48 48 47 47 47 46 45 44 44 43 42 41 40 40 39 37
43 45 46 47 48 49 50 51 52 52 52 52 53 53 53 53 53 53 53 53 52 51 51 50 50 49 49 48 48 47 47 47 46 45 44 43 43 42 41 40 39 37 36
49 50 51 52 53 54 55 55 55 55 55 54 55 55 54 54 54 54 54 54 53 52 51 50 50 50 49 48 48 47 46 46 46 45 44 43 42 41 40 39 37 36 34
53 54 55 57 58 59 59 60 59 59 58 57 56 56 56 56 56 55 55 54 53 52 51 50 50 50 49 49 48 47 46 46 45 44 44 43 41 40 39 38 36 35 33
59 60 61 62 63 63 63 63 63 62 61 60 59 58 57 57 57 57 56 55 54 53 52 51 51 50 50 49 48 47 46 45 44 43 42 41 40 39 38 36 35 34 32
65 66 67 68 68 68 67 66 65 65 63 62 61 60 59 58 57 57 57 56 55 54 53 52 51 51 50 49 48 47 46 45 43 42 41 40 39 38 36 35 34 33 32
68 70 70 71 70 70 70 69 67 66 66 64 63 62 61 59 58 57 57 57 55 54 53 52 51 50 49 48 48 46 45 44 43 42 41 39 37 36 35 34 33 32 31
66 67 69 70 70 70 70 69 68 66 65 64 63 62 60 58 57 57 57 56 55 54 53 52 51 50 49 48 46 45 44 43 42 41 40 38 37 36 35 34 33 32 31
65 66 67 67 67 67 67 67 66 64 62 62 60 58 57 55 54 55 55 55 55 54 53 52 51 50 48 47 45 44 43 42 41 40 39 38 37 36 35 34 33 32 31
64 64 64 63 63 63 63 62 61 60 58 57 56 55 53 52 52 53 54 55 55 54 54 52 50 49 48 47 45 44 43 42 40 39 38 38 37 36 35 34 33 31 30
63 62 61 60 59 59 58 57 55 53 52 51 50 49 48 48 48 49 51 52 53 54 53 51 50 49 48 46 45 44 43 41 40 38 37 37 36 36 35 33 32 31 30
61 60 58 56 56 55 53 52 50 48 45 44 44 45 45 45 46 46 48 50 51 52 52 51 49 48 47 46 45 44 42 41 40 39 37 37 36 35 34 33 32 31 30
58 56 55 54 52 51 49 47 44 43 41 40 40 41 42 42 43 44 46 47 48 50 49 49 48 47 46 45 44 43 42 41 40 39 38 36 35 34 33 32 31 31 30
55 54 52 50 48 47 44 42 40 38 36 36 36 38 38 39 39 41 42 44 46 47 47 47 47 46 45 44 43 42 41 40 39 38 37 36 35 34 33 32 31 30 30
52 51 49 47 45 42 40 38 36 35 33 31 32 34 34 34 35 37 40 41 43 44 44 45 45 45 44 43 43 42 40 39 38 37 36 35 34 34 33 32 31 31 30
50 48 46 43 40 38 35 34 33 32 30 29 29 30 31 31 31 33 36 38 41 41 42 43 43 43 43 42 42 41 39 38 37 36 36 35 34 34 33 32 31 31 30
47 45 42 39 36 33 31 30 29 28 27 27 27 28 28 28 28 30 32 35 37 39 40 41 41 41 41 41 41 40 38 37 37 36 35 34 34 33 32 32 31 30 30
44 41 37 33 30 29 27 26 25 24 25 25 25 25 26 27 27 29 30 32 34 36 37 39 39 39 40 39 39 38 38 37 36 36 35 34 33 33 32 31 30 30 29
39 36 32 29 27 26 24 23 22 22 22 22 22 22 23 24 25 27 29 30 32 34 36 36 37 38 38 38 37 36 36 36 35 34 34 33 33 32 31 30 30 29 29
35 32 29 26 24 22 21 20 19 18 18 19 19 20 22 22 23 24 27 29 31 32 34 34 34 35 35 35 35 35 35 35 34 33 33 32 32 31 31 30 30 29 29
Wind_Direction
261 261 260 260 260 257 255 254 257 258 259 259 258 259 260 260 261 261 261 261 262 263 263 264 265 267 267 267 269 270 272 275 278 280 282 284 287 288 290 291 291 292 292
270 269 267 267 266 263 261 261 262 262 262 261 261 261 261 261 260 261 262 262 263 263 263 263 264 265 265 266 269 271 273 276 278 280 282 283 285 286 288 289 290 291 291
273 273 271 271 270 269 268 267 267 267 266 265 264 262 261 261 260 260 262 262 262 262 262 261 261 263 265 267 270 272 273 275 277 278 280 281 283 284 286 287 289 289 290
276 276 275 274 274 273 272 271 270 269 269 267 266 265 263 262 261 260 261 262 262 262 262 263 264 265 267 269 270 271 273 274 276 277 278 279 281 282 284 286 287 288 289
278 277 275 275 275 274 274 273 272 271 270 270 269 268 267 265 264 263 263 264 264 264 265 265 266 267 268 269 270 270 271 273 274 275 276 277 279 281 282 284 285 287 287
280 279 278 277 276 276 275 274 274 273 272 271 270 268 267 266 266 265 265 265 265 265 265 265 265 266 266 268 268 269 270 271 272 273 274 275 277 279 280 282 284 284 285
285 284 282 281 279 278 277 275 274 273 272 271 270 269 267 266 266 265 264 264 265 265 264 264 265 265 265 266 267 268 268 269 270 271 272 274 275 276 278 280 281 282 282
287 286 285 283 282 280 279 278 276 274 273 271 270 269 268 266 265 264 264 264 264 264 263 263 263 264 264 265 265 266 266 267 268 269 271 272 273 275 277 278 279 279 279
289 287 286 285 283 282 280 279 277 276 274 273 271 269 268 267 265 264 263 263 262 262 262 262 262 262 262 263 264 264 265 266 266 267 269 270 272 274 275 276 276 275 277
290 289 288 287 285 284 282 280 278 277 275 274 272 270 268 267 265 264 263 262 261 260 259 259 260 260 260 260 261 263 264 264 265 266 267 269 270 272 272 272 272 273 274
291 290 289 288 286 284 283 281 279 278 276 274 272 270 268 267 265 263 262 261 259 258 258 257 257 257 257 258 259 260 261 262 263 264 265 266 267 268 269 269 269 270 270
290 289 288 287 286 285 283 282 280 279 276 274 272 270 268 267 265 263 261 260 258 256 256 255 255 255 256 257 258 258 258 259 261 262 263 263 264 265 266 266 267 267 267
290 288 287 286 286 285 283 282 281 280 277 275 272 270 269 266 264 261 259 257 255 253 253 252 252 252 253 254 255 256 256 257 258 259 260 260 261 262 263 263 264 264 263
293 291 288 287 286 284 283 282 281 279 277 275 273 270 268 265 262 259 256 253 251 250 249 249 248 248 249 251 252 253 253 254 256 257 257 258 258 259 260 260 261 261 261
295 293 291 289 287 285 284 283 282 280 278 275 272 269 265 261 257 255 252 250 248 246 245 244 244 245 246 247 248 249 251 252 252 254 254 255 256 257 258 257 258 259 259
298 295 293 291 289 287 286 284 283 281 277 274 270 266 263 258 254 251 249 246 245 243 242 241 241 242 243 244 245 246 248 249 250 251 252 253 254 255 255 255 256 256 257
299 297 294 293 292 290 288 285 282 280 276 272 268 264 260 255 252 249 247 244 242 240 238 238 239 239 241 242 242 243 244 246 247 249 250 251 252 252 253 253 254 254 254
301 299 297 295 294 293 291 288 284 279 274 267 263 260 256 253 250 247 244 241 238 237 236 236 237 237 237 238 239 241 242 244 245 247 248 249 249 250 251 251 252 251 252
303 302 300 298 296 295 292 289 285 280 273 266 260 256 254 252 249 244 241 238 236 234 234 234 235 235 235 236 237 238 239 241 242 244 246 247 248 248 248 248 249 250 251
305 304 302 300 298 295 292 289 285 280 273 266 260 255 252 250 247 242 239 236 234 232 231 232 232 232 232 233 234 235 237 238 239 242 244 244 245 246 246 246 247 248 249
306 305 304 302 298 294 291 288 284 279 272 267 261 255 252 249 245 240 237 234 232 230 229 230 230 230 230 231 232 233 235 236 237 240 242 241 242 243 244 245 246 247 248
308 307 305 303 299 295 291 288 283 277 270 264 260 255 251 248 244 238 234 232 230 228 228 227 228 228 228 229 230 232 234 235 235 238 239 239 240 241 243 245 246 248 248
311 309 307 304 301 298 293 290 283 274 267 260 257 253 248 245 241 236 230 229 229 227 226 225 225 225 226 226 228 230 232 233 234 236 236 238 239 241 243 244 246 246 247
314 313 311 307 303 300 296 291 284 273 265 260 256 252 246 241 237 233 229 228 226 224 222 223 224 224 224 225 226 228 229 232 234 234 235 237 238 240 242 243 244 244 246
317 316 313 309 305 302 298 293 284 273 265 260 253 247 242 238 236 233 229 226 223 221 220 221 222 222 223 223 224 225 228 230 232 232 233 235 237 239 241 241 243 244 247
321 319 315 311 308 306 301 295 287 276 265 257 250 244 239 237 236 232 227 223 221 219 218 218 218 218 219 220 222 224 227 229 230 230 232 234 236 238 240 241 243 245 249
Height
5677 5679 5681 5683 5684 5686 5687 5689 5690 5691 5693 5694 5695 5696 5697 5699 5700 5701 5702 5703 5704 5705 5706 5707 5708 5708 5709 5709 5710 5710 5710 5711 5711 5711 5710 5709 5707 5705 5704 5702 5699 5696 5693
5672 5673 5674 5676 5677 5678 5679 5681 5681 5682 5683 5684 5685 5686 5687 5688 5689 5690 5690 5691 5692 5693 5694 5695 5696 5696 5697 5698 5698 5699 5699 5699 5700 5700 5698 5697 5696 5694 5692 5690 5688 5685 5683
5666 5667 5668 5668 5669 5670 5670 5671 5671 5672 5672 5673 5674 5675 5676 5676 5677 5677 5678 5679 5679 5680 5681 5683 5684 5685 5685 5686 5686 5687 5687 5687 5687 5687 5687 5686 5684 5683 5681 5679 5677 5675 5672
5659 5659 5659 5659 5659 5660 5660 5660 5660 5661 5661 5661 5662 5662 5663 5663 5664 5664 5665 5666 5667 5668 5669 5670 5671 5672 5672 5673 5674 5674 5675 5675 5675 5675 5675 5674 5673 5671 5670 5668 5666 5664 5662
5650 5649 5649 5649 5648 5648 5648 5648 5648 5648 5648 5648 5648 5649 5649 5650 5650 5650 5651 5652 5653 5654 5655 5656 5657 5658 5659 5660 5661 5661 5662 5662 5662 5662 5662 5662 5661 5660 5659 5657 5655 5653 5651
5639 5638 5638 5637 5636 5635 5635 5634 5634 5633 5633 5633 5634 5634 5634 5635 5635 5635 5636 5637 5638 5639 5640 5641 5643 5644 5645 5646 5647 5648 5648 5649 5650 5650 5650 5650 5649 5648 5647 5646 5644 5643 5641
5628 5627 5625 5623 5622 5621 5620 5619 5619 5618 5618 5618 5618 5618 5618 5619 5619 5619 5620 5621 5623 5624 5625 5627 5628 5629 5630 5631 5632 5634 5635 5636 5637 5637 5638 5637 5637 5636 5635 5634 5633 5632 5630
5616 5614 5611 5609 5607 5605 5604 5603 5601 5601 5600 5600 5600 5601 5601 5602 5602 5602 5603 5605 5606 5608 5610 5611 5612 5614 5615 5617 5618 5619 5621 5622 5623 5624 5625 5625 5625 5624 5624 5623 5623 5621 5620
5602 5599 5596 5594 5591 5589 5587 5585 5584 5583 5582 5582 5582 5582 5583 5583 5583 5584 5586 5587 5589 5591 5593 5595 5597 5599 5600 5602 5604 5606 5607 5608 5609 5611 5612 5612 5613 5613 5612 5612 5612 5611 5610
5586 5582 5578 5575 5573 5570 5567 5566 5564 5563 5562 5562 5562 5562 5563 5564 5565 5566 5567 5569 5572 5574 5576 5578 5580 5583 5585 5587 5590 5592 5594 5595 5596 5598 5599 5600 5600 5601 5601 5601 5601 5601 5600
5568 5564 5559 5555 5552 5549 5546 5544 5542 5541 5541 5541 5541 5542 5543 5544 5545 5546 5548 5550 5553 5556 5559 5562 5564 5566 5569 5572 5575 5577 5579 5582 5583 5585 5586 5587 5588 5589 5590 5590 5590 5591 5591
5549 5544 5539 5534 5530 5526 5524 5521 5519 5518 5518 5518 5518 5520 5521 5523 5524 5526 5528 5530 5533 5537 5541 5545 5548 5550 5553 5557 5560 5563 5566 5568 5570 5572 5574 5575 5577 5578 5579 5579 5580 5580 5581
5529 5523 5517 5512 5508 5504 5501 5498 5496 5494 5493 5494 5494 5496 5499 5500 5502 5504 5507 5510 5513 5518 5523 5527 5531 5534 5538 5542 5545 5549 5552 5555 5557 5560 5561 5563 5565 5566 5567 5569 5569 5570 5571
5508 5501 5495 5489 5485 5480 5477 5474 5472 5470 5469 5469 5470 5472 5474 5477 5480 5482 5485 5489 5493 5498 5504 5509 5513 5518 5523 5527 5531 5535 5538 5541 5544 5547 5549 5551 5553 5555 5556 5558 5559 5560 5562
5488 5480 5473 5467 5462 5457 5453 5450 5447 5446 5443 5444 5445 5447 5450 5454 5457 5460 5463 5468 5474 5479 5484 5490 5496 5502 5507 5512 5516 5520 5524 5528 5531 5534 5537 5539 5542 5544 5546 5547 5549 5551 5552
5468 5459 5452 5445 5439 5435 5431 5428 5424 5422 5421 5420 5421 5423 5427 5431 5434 5438 5442 5447 5453 5459 5465 5473 5480 5486 5492 5497 5502 5507 5511 5515 5518 5522 5525 5528 5530 5533 5535 5537 5539 5541 5543
5447 5439 5431 5425 5419 5414 5409 5406 5404 5402 5400 5399 5400 5402 5405 5409 5413 5418 5422 5427 5434 5440 5448 5456 5464 5471 5477 5482 5488 5493 5498 5502 5506 5509 5513 5516 5519 5522 5524 5527 5529 5531 5533
5428 5419 5412 5406 5400 5394 5390 5386 5383 5382 5382 5382 5382 5383 5387 5391 5395 5399 5404 5409 5416 5424 5432 5441 5448 5455 5461 5468 5474 5479 5484 5489 5493 5498 5501 5505 5508 5511 5514 5516 5519 5521 5523
5410 5402 5394 5388 5382 5377 5372 5368 5366 5364 5364 5365 5366 5368 5370 5374 5378 5383 5387 5394 5401 5410 5418 5426 5433 5440 5447 5453 5460 5465 5471 5476 5481 5486 5490 5493 5497 5500 5503 5506 5509 5511 5514
5393 5385 5377 5371 5365 5360 5356 5353 5351 5349 5349 5350 5351 5353 5356 5359 5364 5368 5373 5380 5388 5396 5404 5411 5419 5426 5433 5440 5446 5453 5459 5464 5469 5474 5478 5482 5486 5490 5493 5496 5499 5502 5504
5378 5370 5363 5356 5350 5346 5342 5339 5337 5336 5336 5337 5338 5340 5343 5347 5351 5356 5361 5368 5375 5383 5391 5398 5406 5413 5421 5428 5434 5441 5447 5453 5458 5463 5467 5472 5476 5479 5483 5486 5489 5492 5494
5362 5355 5348 5342 5336 5332 5329 5326 5324 5324 5324 5325 5327 5329 5332 5336 5340 5345 5350 5357 5364 5371 5379 5386 5394 5402 5409 5416 5423 5430 5436 5442 5447 5452 5456 5461 5465 5469 5473 5476 5479 5482 5485
5348 5341 5334 5329 5324 5320 5317 5315 5313 5313 5314 5316 5318 5320 5323 5326 5331 5335 5341 5347 5354 5361 5368 5376 5383 5391 5398 5405 5412 5419 5425 5431 5436 5441 5446 5451 5455 5459 5463 5466 5469 5472 5475
5335 5328 5322 5317 5314 5310 5308 5306 5304 5304 5305 5307 5309 5312 5315 5319 5323 5327 5333 5338 5345 5351 5359 5366 5373 5381 5388 5395 5402 5409 5415 5421 5426 5431 5436 5441 5445 5449 5453 5457 5460 5463 5465
5325 5318 5313 5309 5305 5302 5300 5298 5297 5296 5297 5299 5301 5304 5308 5312 5316 5320 5325 5331 5337 5343 5350 5357 5364 5372 5379 5386 5393 5399 5406 5411 5416 5421 5426 5431 5436 5440 5444 5447 5450 5453 5456
5317 5310 5305 5301 5298 5295 5293 5291 5290 5290 5291 5293 5295 5298 5302 5305 5309 5313 5318 5323 5329 5336 5342 5349 5356 5363 5371 5378 5384 5390 5396 5402 5407 5412 5417 5422 5427 5431 5435 5438 5441 5444 5447